Location: Round Knob
(37.2473°N, 88.7376°W)
Time: 11:58:46
(UTC+00:00)

ERS-2 - Pass Details

Date: 29 October 2020
Orbit: 493 x 497 km, 98.6° (Epoch: 04 December)

Event Time Altitude Azimuth Distance (km) Brightness Sun altitude
Rises 23:32:23 0° 10° (N) 2,582 5.5 -7.1°
Reaches altitude 10° 23:34:28 10° 8° (N) 1,696 4.6 -7.5°
Maximum altitude 23:38:05 70° 285° (WNW) 530 2.5 -8.2°
Drops below altitude 10° 23:41:42 10° 202° (SSW) 1,685 5.3 -8.9°
Sets 23:43:45 0° 199° (SSW) 2,563 6.2 -9.3°
